Location: Unspecified
(20.0000°S, 0.0000°E)
Time: 01:34:14
(UTC+00:00)

NUDT-PHONESAT - Pass Details

Date: 24 July 2019
Orbit: 489 x 505 km, 97.4° (Epoch: 21 August)

Event Time Altitude Azimuth Distance (km) Brightness Sun altitude
Rises 18:13:30 0° 168° (SSE) 2,611 ? -8.2°
Reaches altitude 10° 18:15:36 10° 168° (SSE) 1,718 ? -8.7°
Maximum altitude 18:19:18 84° 81° (E) 507 ? -9.5°
Drops below altitude 10° 18:22:56 10° 350° (N) 1,686 ? -10.3°
Sets 18:24:59 0° 349° (N) 2,558 ? -10.8°
